Arcata, CA (95518)

9:58 PM PDT on August 26, 2016 (GMT -0700)
APRSWXNET | | Change Station

Elev 5 ft 40.86 °N, 124.09 °W | Updated 30 minutes ago

Overcast
Overcast
58 °F
Feels Like 58 °F
N
1
Wind Variable Wind from NNW
Gusts 3.0 mph

Today
High -- | Low -- °F
--% Chance of Precip.
Yesterday
High -- | Low -- °F
Precip. -- in
Pressure 30.00 in
Visibility 10.0 miles
Clouds Overcast 800 ft
Dew Point 55 °F
Humidity 91%
Rainfall in
Snow Depth Not available.
6:37 AM 7:57 PM
Waning Crescent, 28% visible
METAR KACV 270453Z AUTO 00000KT 10SM OVC008 14/13 A2998 RMK AO2 SLP158 T01440128
Pressure 30.00 in
Visibility 10.0 miles
Clouds Overcast 800 ft
Dew Point 55 °F
Humidity 91%
Rainfall in
Snow Depth Not available.
6:37 AM 7:57 PM
Waning Crescent, 28% visible
METAR KACV 270453Z AUTO 00000KT 10SM OVC008 14/13 A2998 RMK AO2 SLP158 T01440128

10-Day Weather Forecast

Almanac

Astronomy

Aug. 26, 2016 Rise Set
Actual Time
Civil Twilight
Nautical Twilight
Astronomical Twilight
Moon
Length of Visible Light
Length of Day
Tomorrow will be .
, % of the Moon is Illuminated

Today's Extremes

State Highs State Lows

Community

WunderPhotos

Upload Photos

1,935,299 photos uploaded!

WunderBlog® & News

Nearby

Air Quality

  Air Quality AQ Index Pollutant
Not available.

Snow Depth

Station Depth Elevation

Earthquake Activity

City Distance Mag. Time & Date
Minimum magnitude displayed is 2.5.

Coastal Water Temperatures

Place Temperature

Stations

Nearby Weather Stations

Station Location Temp. Windchill Dew Point Humidity Wind Precip. Elev Updated Type
                   

Watches & Warnings

There are currently no watches in effect.